Regional Weather Roundup
Issued by NWS Sioux Falls, SD

Home | Current Version | Previous Version | Text Only | Print | Product List | Glossary Off
Versions: 1 2 3 4 5 6 7 8 9 10 11 12 13 14 15 16 17 18 19 20 21 22 23 24 25 26 27 28 29 30 31 32 33 34 35 36 37 38 39 40 41 42 43 44 45 46 47 48 49 50

000
ASUS43 KFSD 020402
RWRFSD

WEATHER ROUNDUP FOR SE SOUTH DAKOTA/SW MINNESOTA/NW IOWA
NATIONAL WEATHER SERVICE SIOUX FALLS SD
1000 PM CST SUN MAR 01 2015

NOTE: "FAIR" INDICATES FEW OR NO CLOUDS BELOW 12,000 FEET WITH NO
SIGNIFICANT WEATHER AND OR OBSTRUCTIONS TO VISIBILITY.


SDZ038>040-050-052>070-020500-
SOUTHEAST SOUTH DAKOTA

CITY           SKY/WX    TMP DP  RH WIND       PRES   REMARKS
CHAMBERLAIN    NOT AVBL
HURON          CLEAR     11   8  88 N3        30.44R
MADISON        FAIR      10  10 100 NW6       30.40R WCI   1
MITCHELL       CLEAR     19  12  74 CALM      30.45R
SIOUX FALLS    CLEAR     15  10  80 W6        30.42R WCI   6
WINNER         FAIR      20   3  48 CALM      30.39R
YANKTON        CLEAR     16   9  73 N9        30.45R WCI   4
$$

MNZ071-072-080-081-089-090-097-098-020500-
SOUTHWEST MINNESOTA

CITY           SKY/WX    TMP DP  RH WIND       PRES   REMARKS
FAIRMONT       CLEAR     21  12  68 NW14      30.37R WCI   8
JACKSON        CLEAR     19  14  79 NW12      30.39R WCI   7
LUVERNE        CLEAR     18  12  79 NW5       30.42R WCI  11
MARSHALL       CLEAR     12   7  79 W9        30.42R WCI   0
MONTEVIDEO     FAIR      16  10  79 NW5       30.41R WCI   9
PIPESTONE      CLEAR     18  12  79 NW7       30.38R WCI   8
REDWOOD FALLS  CLEAR     18  12  77 NW12      30.40R WCI   5
TRACY          CLEAR     19  12  77 W6        30.40R WCI  10
WINDOM         CLEAR     16  12  86 W9        30.39R WCI   4
WORTHINGTON    CLEAR     27  10  50 NW10      30.41R WCI  17
$$

IAZ001>003-012>014-020>022-031-032-NEZ013-014-SDZ071-020500-
NORTHWEST IOWA

CITY           SKY/WX    TMP DP  RH WIND       PRES   REMARKS
ESTHERVILLE    CLEAR     17  12  80 NW13      30.39R WCI   4
SIOUX CITY     CLEAR     23  14  68 N7        30.45R WCI  15
SPENCER        CLEAR     16  11  80 NW7       30.40R WCI   6
$$

ABBREVIATIONS USED IN REMARKS
   TC - TEMPERATURE IN CELSIUS
  WCI - WIND CHILL INDEX
   HX - HEAT INDEX
  VSB - VISIBILITY




USA.gov is the U.S. government's official web portal to all federal, state and local government web resources and services.